Temperature
25 24 23 22 21 20 20 19 19 19 19 19 18 18 18 18 18 18 18 18 18 18 18 18 18 18 18 18 18 18 18 18 18 18 18 18 18 18 18 18 17 17 17
25 24 23 22 21 20 20 20 19 19 19 19 19 19 18 18 18 18 18 18 18 18 18 18 18 18 18 18 18 18 18 18 18 18 18 18 18 18 18 17 17 17 17
26 24 23 23 22 21 20 20 20 20 19 19 19 19 19 18 18 18 18 18 18 18 18 18 18 18 18 18 18 18 18 18 18 18 18 18 18 18 18 17 17 17 17
26 25 24 23 22 21 21 21 20 20 19 19 19 19 19 19 19 18 18 18 18 18 18 18 18 18 17 17 17 17 18 18 18 18 18 18 18 17 17 17 17 17 17
27 26 25 24 23 22 21 21 20 20 20 20 19 19 19 19 19 18 18 18 18 18 18 18 18 18 18 18 17 17 17 17 17 17 18 18 18 18 17 17 17 17 16
28 26 25 24 23 22 22 21 21 21 20 20 20 19 19 19 19 19 18 18 18 18 18 18 18 18 17 17 17 17 17 17 17 17 17 17 17 17 17 17 16 16 16
28 26 25 24 24 23 22 22 21 21 21 20 20 20 20 19 19 19 18 18 18 18 18 18 18 18 18 17 17 17 17 17 17 17 17 17 17 17 17 17 16 16 16
28 27 26 25 24 23 23 22 21 21 21 21 20 20 20 19 19 19 19 18 18 18 18 18 18 18 17 17 17 17 17 17 17 17 17 17 17 17 17 17 16 16 16
28 27 26 25 24 24 23 22 22 21 21 21 20 20 20 19 19 19 19 18 18 18 18 18 18 17 17 17 17 17 17 17 17 17 17 17 17 16 16 16 16 16 15
28 28 27 26 25 24 23 23 22 22 21 21 20 20 20 20 19 19 19 19 18 18 18 18 18 17 17 17 17 17 17 17 17 16 16 17 16 16 16 16 16 16 16
29 28 27 26 25 24 23 23 22 22 21 21 21 20 20 19 19 19 19 19 19 18 18 18 18 17 17 17 17 17 17 16 16 16 16 16 16 16 16 16 16 16 15
29 28 27 26 25 24 24 23 22 21 21 21 21 20 20 19 19 19 19 19 18 18 18 18 17 17 17 17 17 16 16 16 16 16 16 16 16 16 16 16 15 15 15
28 28 27 26 25 25 24 23 22 22 21 21 21 20 20 20 19 19 19 19 18 18 18 18 17 17 17 16 16 16 16 16 16 16 16 16 16 15 15 15 15 15 15
28 27 27 26 25 25 24 23 23 22 21 21 21 20 20 20 19 19 19 19 18 18 18 17 17 17 17 16 16 16 16 16 16 15 15 15 15 15 15 15 15 15 14
27 27 26 25 25 24 24 23 23 22 22 21 21 20 20 20 19 19 19 19 18 18 18 17 17 17 17 17 16 16 16 15 15 15 15 15 15 15 14 14 14 14 14
27 26 26 25 24 24 23 23 23 22 22 21 21 21 20 20 19 19 19 18 18 18 17 17 17 17 17 16 16 16 15 15 15 15 15 14 14 14 14 14 14 14 14
26 25 25 24 24 23 23 23 22 22 22 21 21 21 20 20 19 19 19 18 18 18 17 17 17 17 17 16 16 16 15 15 14 14 14 14 14 14 14 14 13 14 13
25 25 24 24 23 23 23 22 22 22 21 21 21 20 20 19 19 19 18 18 18 18 17 17 17 17 16 16 16 15 15 14 14 14 14 14 13 13 13 13 13 13 13
24 24 24 24 23 23 22 22 21 21 21 21 20 20 19 19 19 18 18 18 18 17 17 16 16 16 16 16 15 15 15 14 14 14 14 13 13 13 13 13 13 13 13
23 23 23 23 23 22 22 21 21 21 21 20 20 20 19 19 19 18 18 18 17 17 16 16 16 16 16 16 15 15 14 14 14 14 13 13 13 13 13 13 12 12 12
23 23 23 22 22 22 21 21 20 20 20 20 20 19 19 19 18 18 18 17 17 16 16 16 15 15 15 15 15 15 14 14 14 13 13 13 13 13 12 12 12 12 12
22 22 22 21 21 21 21 20 20 20 19 19 19 19 18 18 17 17 17 17 16 16 16 15 15 15 15 15 15 15 14 14 13 13 13 13 13 13 12 12 12 12 12
21 21 21 21 20 20 20 20 20 19 19 18 18 18 18 17 17 17 17 16 16 15 15 15 15 14 14 14 14 14 14 13 13 13 13 12 12 12 12 12 12 12 12
20 20 20 20 19 19 19 19 19 19 18 18 18 17 17 17 16 16 16 16 15 15 15 15 14 14 14 14 14 13 13 13 13 12 12 12 12 12 12 12 12 11 11
20 19 19 19 19 19 18 18 18 18 17 17 17 17 16 16 16 16 16 15 15 15 15 15 14 14 14 14 14 13 13 13 12 12 12 12 12 12 12 12 11 11 11
19 19 19 18 18 18 18 18 17 17 17 16 16 16 16 16 15 15 15 15 15 15 15 14 14 14 14 13 13 13 13 13 12 12 12 12 12 12 12 11 11 11 11
Wind_Speed
12 11 10 10 9 8 7 5 4 4 3 2 2 2 2 2 2 2 3 3 2 2 1 0 2 1 1 1 1 1 1 2 2 1 1 1 2 2 2 2 2 3 5
12 12 11 10 10 8 7 6 4 4 3 3 2 2 2 2 3 2 3 3 2 2 2 1 1 1 1 1 1 2 1 2 2 2 1 0 0 0 1 2 2 2 3
14 13 12 10 10 9 8 6 5 5 4 4 3 2 2 1 1 2 2 2 2 2 1 2 1 1 1 1 2 1 2 2 3 3 2 1 1 0 1 1 1 2 2
15 14 13 11 11 10 9 7 6 5 4 3 2 3 3 2 2 2 2 3 2 1 1 1 1 1 1 1 1 1 2 2 3 2 2 2 2 2 1 0 1 1 2
15 14 14 12 11 11 10 9 7 5 4 3 2 2 2 2 2 3 3 2 2 2 1 2 1 1 1 1 1 1 1 1 2 2 2 2 2 2 2 1 1 1 1
14 13 13 12 11 11 11 10 9 6 5 4 3 3 2 1 2 2 2 2 2 2 2 2 1 0 0 0 1 1 1 1 2 2 2 1 2 2 2 3 3 1 1
15 14 13 13 12 12 11 10 10 8 6 6 4 4 3 3 2 2 2 1 2 2 2 2 1 0 1 0 1 1 1 2 2 2 2 2 2 2 2 2 2 1 1
14 14 13 12 12 12 11 11 11 9 8 6 4 3 3 3 2 2 1 2 1 2 2 2 1 0 1 1 0 1 2 1 1 2 2 2 2 1 1 2 2 2 1
14 14 14 13 12 12 11 11 11 9 8 8 6 5 4 2 2 2 2 1 1 2 2 2 2 1 0 1 1 0 1 1 1 1 1 1 2 1 1 1 2 2 2
13 13 14 14 12 11 10 9 10 9 8 7 7 7 6 4 3 2 2 2 2 2 1 1 1 1 1 1 1 0 1 1 1 1 1 1 2 2 1 1 1 1 2
13 13 13 13 12 12 12 10 9 9 8 6 5 5 6 5 4 3 2 2 1 1 1 1 1 1 1 1 1 0 0 1 1 1 1 1 1 1 2 1 0 1 2
12 13 13 12 12 12 12 11 10 9 8 7 6 6 5 5 4 4 3 2 2 2 1 1 1 1 2 1 1 0 1 1 1 1 1 2 1 1 1 1 1 1 2
10 10 11 11 10 10 10 11 10 10 9 8 7 6 5 4 4 4 3 3 2 2 2 2 2 2 2 1 1 1 1 1 1 1 1 1 2 1 1 1 1 1 2
7 8 8 9 9 9 9 9 10 10 10 9 8 7 6 5 4 4 3 3 3 3 2 2 2 2 2 2 1 1 1 1 1 1 1 2 2 2 1 1 1 1 2
7 7 8 7 7 8 9 9 9 8 9 9 9 8 6 6 5 4 3 3 2 3 3 2 2 2 2 1 2 0 2 1 1 1 2 3 4 5 3 2 2 2 2
5 6 6 8 7 7 7 8 8 8 7 8 8 7 7 6 5 5 4 3 3 2 2 2 2 2 2 4 5 3 2 1 1 1 2 3 4 5 5 6 5 4 2
3 3 4 6 6 7 7 8 8 8 8 7 7 8 7 7 6 6 5 4 3 3 2 2 3 4 4 5 5 5 1 2 2 1 1 1 3 3 2 3 4 5 4
2 2 3 5 6 8 8 6 7 8 8 8 8 8 8 7 6 5 5 4 3 3 3 2 3 4 3 3 4 4 0 1 2 2 2 2 3 2 2 2 3 3 3
3 1 1 4 5 6 7 7 7 7 7 8 7 7 7 7 7 6 5 4 4 3 3 3 3 3 3 2 2 2 1 1 2 2 2 2 3 3 3 2 2 2 2
2 2 1 2 4 5 6 7 7 7 7 7 7 7 7 7 6 6 5 5 4 4 4 4 4 4 3 2 1 1 1 1 2 3 3 4 3 2 2 1 2 2 1
3 2 1 1 3 5 6 6 6 6 5 5 6 7 6 6 6 5 5 5 5 4 4 4 4 4 4 3 1 1 0 0 1 2 2 2 3 2 1 1 1 2 1
4 3 2 2 3 4 6 5 5 4 4 5 6 6 6 6 6 6 5 5 5 5 5 4 4 4 4 3 3 2 1 0 0 1 2 3 4 3 2 1 1 0 1
2 2 2 2 2 3 4 5 4 4 5 5 5 5 5 4 5 6 6 5 5 5 5 5 5 4 4 4 4 4 2 1 0 2 3 4 4 3 2 4 3 2 2
1 1 1 1 2 3 3 3 4 5 5 5 5 5 4 4 4 4 4 4 5 5 5 4 4 4 4 4 4 3 3 3 3 2 3 4 4 3 3 3 4 4 3
1 1 1 1 2 2 3 3 4 5 5 5 5 5 5 5 4 3 2 3 2 3 3 3 3 4 4 4 5 3 3 2 2 2 2 3 3 3 3 3 3 3 3
1 1 1 1 2 3 3 3 3 4 5 5 5 5 5 5 5 5 2 4 2 4 4 3 3 2 4 6 7 6 5 4 3 3 3 3 4 4 3 3 3 3 3
Wind_Direction
155 152 154 151 148 143 141 142 145 140 147 148 163 169 171 175 162 151 134 135 157 155 169 315 160 207 217 203 202 199 217 221 197 234 258 246 216 190 178 179 175 172 161
154 155 157 155 153 148 147 149 151 151 154 162 176 176 172 183 158 127 119 143 164 188 186 190 234 217 197 205 228 222 230 247 212 199 201 221 269 339 185 163 167 156 121
159 159 163 161 158 153 155 157 153 153 162 169 176 177 148 140 101 127 135 156 168 192 192 167 198 255 199 202 214 234 241 243 253 222 204 202 205 119 31 146 145 142 124
159 161 164 164 163 157 155 147 146 147 152 164 178 174 160 161 161 155 147 144 144 171 156 155 167 238 234 221 248 219 258 251 266 274 262 243 173 175 190 29 48 96 99
160 163 165 164 163 160 157 152 146 147 151 164 168 176 164 166 154 140 136 144 146 147 132 132 152 215 228 229 270 295 280 270 272 281 282 275 229 199 182 195 183 96 88
158 160 163 159 162 161 158 156 150 155 158 168 172 169 181 171 129 134 140 169 159 146 126 126 132 172 238 253 267 271 267 262 266 279 287 272 260 221 196 188 181 171 137
156 161 167 160 162 162 160 157 154 161 168 173 177 169 183 175 162 174 167 174 138 129 121 123 134 190 218 205 289 259 269 268 272 263 273 278 265 252 213 192 174 164 144
158 162 160 160 165 164 160 158 158 164 170 173 171 165 170 183 182 181 173 142 136 121 129 133 146 150 305 299 286 287 282 268 273 268 275 293 301 285 215 196 164 155 149
158 161 163 166 167 164 161 161 159 165 171 173 167 162 164 167 161 149 169 150 122 138 132 138 147 155 164 297 316 339 326 340 302 304 299 288 300 309 264 186 179 171 175
165 168 166 167 165 162 157 157 159 163 169 171 173 168 169 169 172 157 126 116 110 94 113 116 132 144 149 97 71 45 343 18 4 358 26 339 317 322 313 222 194 173 166
161 164 163 162 160 160 160 160 160 163 165 167 164 157 159 166 164 159 153 145 134 135 139 143 127 105 75 66 93 145 31 52 39 12 18 346 337 343 344 359 88 141 136
158 159 159 157 161 165 165 163 163 165 166 166 159 155 155 158 162 153 145 147 146 144 134 148 130 129 102 77 50 35 67 57 45 10 360 360 6 1 4 33 72 102 129
148 151 154 157 160 161 161 164 168 168 167 164 157 155 157 156 155 146 148 144 141 131 122 123 120 110 104 102 93 101 87 78 56 21 27 30 19 10 41 67 89 130 135
141 150 148 153 156 157 157 160 165 167 166 164 162 161 160 158 149 144 141 141 142 140 135 126 119 114 108 97 104 120 114 119 102 63 55 49 43 33 25 85 81 112 121
146 159 156 147 148 153 161 164 166 165 165 165 166 164 162 155 151 148 144 140 143 138 133 137 139 131 116 56 19 163 131 122 113 94 85 85 79 68 58 80 78 94 114
155 153 151 150 154 159 166 166 164 162 159 164 163 156 156 157 157 157 154 143 135 122 124 122 98 83 74 51 41 31 69 73 82 87 95 123 108 97 83 78 80 93 126
131 146 159 158 164 167 168 169 168 164 165 165 163 161 165 165 167 167 155 147 141 127 121 116 102 89 67 46 36 28 38 87 65 62 54 79 93 99 92 100 101 81 81
44 142 168 169 173 167 164 164 169 169 170 171 170 169 171 169 165 163 162 157 152 144 131 125 115 109 90 48 27 2 12 110 101 90 69 71 91 69 65 100 103 99 72
26 21 172 172 164 163 162 162 170 172 173 174 172 170 170 170 172 171 168 161 156 147 149 147 133 124 113 60 17 2 246 140 119 109 89 88 96 58 64 107 113 110 115
32 29 49 140 155 159 156 164 172 176 181 178 171 167 170 171 172 168 163 159 158 162 158 146 141 142 137 138 37 345 223 162 144 122 111 91 102 100 73 149 146 137 135
31 47 66 90 146 150 152 165 173 182 178 167 163 164 168 168 165 160 162 160 162 163 160 150 151 150 152 153 142 28 173 150 176 155 143 125 126 119 136 186 158 162 205
28 37 51 66 113 136 149 163 172 169 155 159 162 163 164 175 169 161 165 166 167 170 171 171 174 166 162 160 172 173 172 206 1 105 113 127 141 132 143 148 136 293 283
25 37 55 69 100 122 144 159 149 139 144 151 156 157 164 166 160 172 175 173 178 193 191 188 189 179 170 166 177 184 195 190 111 83 109 144 163 156 178 200 221 239 247
22 44 99 117 116 123 144 150 148 142 148 160 160 163 168 172 166 174 182 189 196 202 199 195 189 182 177 175 179 183 185 179 173 169 161 178 200 233 244 213 219 227 233
63 80 124 134 134 128 138 142 140 150 163 167 165 170 177 177 164 165 162 190 194 213 205 203 192 191 192 186 169 174 176 171 151 165 181 192 199 211 218 219 220 221 215
107 110 111 124 134 137 137 133 138 160 169 176 177 183 185 174 174 174 154 58 81 102 98 109 139 124 136 151 151 156 159 151 149 177 217 219 212 217 219 219 220 222 219
Height
1528 1531 1533 1535 1537 1538 1538 1539 1540 1540 1541 1542 1543 1543 1544 1545 1546 1546 1547 1547 1547 1548 1549 1549 1550 1551 1551 1552 1553 1553 1554 1554 1555 1555 1556 1556 1557 1557 1557 1558 1558 1559 1559
1526 1529 1532 1534 1536 1537 1538 1539 1539 1540 1540 1541 1542 1543 1544 1545 1545 1546 1546 1546 1547 1547 1548 1548 1549 1550 1550 1551 1552 1552 1553 1553 1554 1554 1555 1555 1557 1556 1556 1556 1557 1557 1558
1522 1526 1530 1533 1535 1536 1537 1538 1538 1539 1540 1541 1542 1544 1544 1545 1545 1545 1546 1546 1546 1547 1547 1548 1548 1549 1549 1550 1550 1551 1551 1551 1553 1553 1554 1554 1554 1555 1555 1555 1555 1556 1556
1519 1524 1528 1531 1533 1534 1536 1537 1538 1539 1539 1540 1542 1543 1543 1544 1545 1545 1545 1546 1546 1546 1547 1547 1547 1548 1548 1549 1549 1550 1550 1550 1551 1552 1552 1553 1553 1553 1554 1554 1554 1554 1555
1516 1521 1525 1528 1531 1533 1535 1536 1536 1537 1538 1540 1541 1542 1543 1544 1545 1545 1545 1546 1546 1546 1546 1546 1546 1547 1547 1547 1548 1548 1548 1549 1549 1550 1550 1551 1551 1551 1552 1552 1553 1553 1553
1513 1518 1523 1526 1529 1532 1534 1535 1535 1536 1538 1539 1540 1541 1542 1543 1544 1544 1545 1545 1545 1545 1546 1546 1545 1546 1546 1546 1546 1546 1547 1547 1547 1548 1548 1549 1549 1549 1550 1550 1550 1551 1552
1511 1517 1521 1524 1527 1530 1532 1534 1534 1536 1537 1538 1539 1541 1541 1542 1543 1543 1544 1544 1545 1545 1545 1545 1545 1545 1545 1545 1545 1545 1545 1545 1546 1546 1546 1547 1547 1547 1547 1548 1548 1549 1550
1509 1514 1518 1522 1525 1528 1530 1532 1533 1535 1536 1537 1539 1540 1541 1542 1543 1543 1544 1544 1544 1544 1544 1544 1544 1544 1544 1544 1544 1543 1544 1544 1544 1544 1544 1544 1545 1545 1545 1546 1546 1547 1548
1507 1512 1516 1520 1523 1526 1528 1530 1532 1534 1535 1537 1538 1539 1540 1541 1542 1543 1543 1543 1543 1543 1543 1543 1542 1542 1542 1542 1542 1542 1542 1542 1542 1542 1542 1542 1543 1543 1543 1544 1544 1545 1545
1506 1510 1514 1518 1521 1524 1526 1529 1531 1532 1534 1536 1537 1538 1539 1540 1541 1542 1542 1542 1542 1542 1542 1541 1541 1541 1541 1541 1541 1541 1540 1541 1540 1540 1540 1540 1541 1541 1542 1542 1542 1542 1543
1503 1507 1512 1516 1519 1522 1525 1527 1529 1531 1533 1535 1536 1537 1538 1539 1540 1540 1541 1541 1541 1540 1540 1540 1540 1540 1540 1540 1539 1539 1539 1539 1539 1539 1539 1539 1539 1539 1539 1540 1540 1540 1541
1501 1505 1509 1514 1518 1521 1523 1525 1528 1530 1531 1533 1535 1536 1537 1538 1539 1539 1540 1540 1539 1539 1539 1538 1538 1538 1538 1538 1538 1538 1538 1538 1538 1538 1537 1537 1537 1538 1538 1538 1538 1538 1539
1500 1504 1508 1512 1516 1519 1522 1524 1526 1529 1530 1532 1533 1535 1536 1537 1538 1538 1538 1538 1538 1538 1537 1537 1537 1537 1537 1537 1537 1537 1537 1536 1536 1536 1536 1536 1536 1536 1536 1536 1536 1537 1537
1500 1503 1507 1511 1514 1517 1520 1522 1525 1527 1529 1531 1532 1533 1534 1535 1536 1537 1537 1537 1537 1537 1537 1537 1536 1536 1536 1536 1536 1536 1535 1535 1535 1535 1535 1535 1535 1535 1535 1535 1535 1536 1536
1500 1504 1506 1509 1512 1515 1518 1520 1523 1525 1527 1529 1530 1532 1533 1534 1535 1535 1535 1536 1536 1536 1536 1536 1536 1535 1535 1535 1535 1535 1534 1534 1534 1534 1534 1534 1534 1534 1534 1534 1534 1534 1535
1501 1503 1505 1507 1510 1513 1516 1518 1521 1523 1525 1527 1529 1530 1531 1532 1533 1533 1534 1534 1535 1535 1535 1535 1535 1534 1534 1534 1533 1533 1533 1533 1533 1533 1533 1533 1532 1532 1533 1533 1533 1534 1534
1500 1502 1504 1506 1508 1510 1513 1516 1518 1521 1523 1525 1527 1528 1529 1530 1531 1532 1532 1533 1533 1533 1533 1533 1533 1533 1532 1532 1532 1532 1531 1531 1531 1531 1531 1532 1531 1531 1531 1531 1532 1532 1532
1500 1501 1503 1505 1506 1508 1511 1513 1516 1518 1520 1522 1524 1525 1527 1528 1529 1529 1530 1530 1531 1531 1531 1532 1532 1531 1531 1531 1531 1531 1530 1530 1530 1530 1530 1530 1529 1529 1529 1530 1530 1530 1531
1500 1501 1502 1503 1505 1506 1508 1511 1513 1515 1517 1519 1521 1522 1524 1525 1526 1527 1527 1528 1528 1529 1529 1530 1530 1529 1529 1529 1529 1529 1529 1529 1528 1528 1528 1528 1528 1527 1527 1528 1528 1528 1529
1499 1499 1500 1501 1502 1504 1506 1508 1510 1512 1514 1516 1517 1519 1521 1522 1523 1524 1525 1525 1526 1527 1527 1527 1528 1527 1527 1527 1528 1527 1527 1527 1527 1526 1527 1527 1526 1525 1525 1525 1526 1526 1528
1498 1498 1499 1500 1501 1502 1504 1505 1508 1509 1511 1513 1515 1516 1518 1519 1521 1522 1522 1523 1523 1524 1525 1525 1525 1525 1525 1525 1525 1526 1525 1525 1525 1525 1525 1525 1524 1523 1522 1523 1524 1525 1526
1496 1497 1498 1499 1500 1501 1502 1503 1505 1507 1509 1510 1512 1513 1514 1516 1518 1519 1519 1520 1521 1522 1522 1523 1523 1523 1523 1523 1523 1523 1524 1524 1524 1524 1523 1523 1523 1522 1521 1522 1523 1524 1526
1496 1496 1497 1498 1498 1499 1500 1501 1502 1504 1506 1508 1509 1510 1512 1513 1514 1515 1516 1517 1518 1519 1519 1520 1520 1520 1520 1520 1521 1521 1522 1522 1522 1522 1522 1523 1523 1522 1522 1522 1523 1524 1524
1494 1495 1495 1496 1497 1498 1499 1499 1500 1501 1503 1505 1506 1507 1509 1510 1511 1512 1513 1514 1515 1516 1516 1517 1518 1518 1518 1518 1518 1519 1519 1520 1520 1521 1521 1522 1522 1522 1521 1521 1521 1522 1523
1492 1493 1493 1494 1495 1495 1496 1497 1498 1499 1501 1503 1504 1505 1506 1507 1508 1509 1510 1511 1512 1512 1513 1515 1515 1516 1515 1516 1516 1516 1517 1517 1518 1518 1519 1519 1519 1519 1519 1519 1519 1519 1520
1490 1491 1491 1492 1493 1493 1494 1495 1496 1497 1499 1500 1501 1502 1504 1505 1505 1506 1507 1507 1508 1508 1510 1512 1513 1513 1514 1514 1514 1514 1515 1515 1516 1516 1516 1516 1517 1517 1517 1517 1517 1517 1517